EW4719 Weather Reports


Display with metric or nautical units.
time (UTC)temp
F
wind
direction
speed
MPH
gust
MPH
rain 1hr
in
rain 24hr
in
rain mn
in
humidity
%
barometer
mb
20260901231605 55 295 3.0 8.0 0.00 0.14 0.00 93 1013.8
20260901230104 55 258 3.0 8.0 0.00 0.14 0.00 93 1013.9
20260901224546 55 248 3.0 9.0 0.00 0.14 0.14 93 1013.8
20260901223113 55 288 2.0 8.0 0.00 0.14 0.14 93 1013.9
20260901221601 55 219 3.0 11.0 0.00 0.14 0.14 93 1013.6
20260901220120 55 242 3.0 9.0 0.00 0.14 0.14 93 1013.5
20260901214602 55 254 4.0 10.0 0.00 0.14 0.14 93 1013.5
20260901213120 55 246 3.0 8.0 0.00 0.14 0.14 93 1013.6
20260901211604 55 272 2.0 7.0 0.00 0.14 0.14 93 1013.6
20260901210115 55 264 3.0 8.0 0.00 0.14 0.14 93 1013.5
20260901204555 55 279 4.0 10.0 0.00 0.14 0.14 93 1013.5
20260901203116 55 220 4.0 9.0 0.00 0.14 0.14 93 1013.4
20260901201558 55 276 4.0 12.0 0.00 0.14 0.14 93 1013.4
20260901200118 55 236 4.0 11.0 0.00 0.14 0.14 93 1013.2
20260901194615 55 258 5.0 13.0 0.00 0.14 0.14 93 1013.1
20260901193109 55 240 6.0 13.0 0.00 0.14 0.14 94 1013.0
20260901191600 55 224 5.0 12.0 0.00 0.14 0.14 94 1012.8
20260901190118 56 262 3.0 14.0 0.00 0.14 0.14 94 1012.7
20260901184600 56 249 4.0 12.0 0.00 0.14 0.14 94 1012.7
20260901183117 56 333 4.0 14.0 0.00 0.14 0.14 94 1012.7
20260901181603 56 240 6.0 14.0 0.00 0.14 0.14 94 1012.7
20260901180113 56 228 6.0 16.0 0.01 0.14 0.14 94 1012.5
20260901174520 57 244 5.0 15.0 0.03 0.14 0.14 94 1012.5
20260901173009 57 253 5.0 14.0 0.08 0.14 0.14 94 1012.6
20260901171519 57 281 5.0 11.0 0.14 0.14 0.14 93 1012.5
20260901170150 57 307 4.0 11.0 0.13 0.13 0.13 93 1012.4
20260901164554 58 240 5.0 11.0 0.11 0.11 0.11 92 1012.4
20260901163059 59 250 4.0 12.0 0.06 0.06 0.06 90 1012.2
20260901161525 61 322 4.0 15.0 0.00 0.00 0.00 86 1012.1
20260901160150 62 278 8.0 17.0 0.00 0.00 0.00 83 1012.0
20260901154554 62 286 8.0 16.0 0.00 0.00 0.00 82 1011.9
20260901153117 62 179 8.0 19.0 0.00 0.00 0.00 82 1011.8
20260901151502 62 280 6.0 20.0 0.00 0.00 0.00 83 1011.8
20260901150032 62 194 9.0 19.0 0.00 0.00 0.00 82 1011.9
20260901144537 63 240 8.0 26.0 0.00 0.00 0.00 81 1012.0
20260901143136 63 231 7.0 21.0 0.00 0.00 0.00 80 1011.8
20260901141608 64 248 9.0 22.0 0.00 0.00 0.00 80 1011.6
20260901140104 62 233 7.0 25.0 0.00 0.00 0.00 83 1011.8
20260901134559 61 248 8.0 24.0 0.00 0.00 0.00 86 1011.8
20260901133110 61 250 11.0 22.0 0.00 0.00 0.00 85 1011.8
20260901131550 60 222 6.0 17.0 0.00 0.00 0.00 84 1011.9
20260901130111 62 235 11.0 25.0 0.00 0.00 0.00 83 1011.9
20260901124503 63 218 10.0 21.0 0.00 0.00 0.00 81 1011.6
20260901123125 63 245 9.0 21.0 0.00 0.00 0.00 82 1011.6
20260901121501 62 236 11.0 26.0 0.00 0.00 0.00 82 1011.4
20260901120147 62 247 10.0 24.0 0.00 0.00 0.00 81 1011.3
20260901114554 62 216 13.0 28.0 0.00 0.00 0.00 81 1011.2
20260901113114 62 232 11.0 27.0 0.00 0.00 0.00 82 1011.2
20260901111558 62 264 14.0 25.0 0.00 0.00 0.00 81 1011.2
20260901110117 62 211 12.0 25.0 0.00 0.00 0.00 81 1011.2
20260901104554 62 277 13.0 25.0 0.00 0.00 0.00 81 1011.0
20260901103018 61 211 12.0 23.0 0.00 0.00 0.00 84 1010.9
20260901101548 60 226 12.0 27.0 0.00 0.00 0.00 86 1011.0
20260901100042 60 173 11.0 22.0 0.00 0.00 0.00 84 1011.2
20260901094540 60 211 11.0 24.0 0.00 0.00 0.00 84 1011.2
20260901093014 59 234 12.0 24.0 0.00 0.00 0.00 85 1011.7
20260901091529 58 194 9.0 20.0 0.00 0.00 0.00 86 1011.7
20260901090146 58 214 8.0 19.0 0.00 0.00 0.00 86 1011.5
20260901084505 57 220 11.0 22.0 0.00 0.00 0.00 86 1011.7
20260901083102 57 256 10.0 17.0 0.00 0.00 0.00 86 1011.7
20260901081557 58 227 7.0 19.0 0.00 0.00 0.00 86 1011.7
20260901080139 58 201 8.0 20.0 0.00 0.00 0.00 85 1011.7